This is the latest recevied weather packets stored in our database for station/object NI4CE-10. If no packets are shown the sender has not sent any weather packets the latest 10 day(s).
| Time | Temp. | Humidity | Pressure | Rain* | Wind** | Luminosity | Snow |
|---|---|---|---|---|---|---|---|
| 1777765564 | 21.11° C | 100% | 1013.4 hPa | 0.25 mm | - | - | - |
| 1777765502 | 21.11° C | 100% | 1014.3 hPa | 0.51 mm | - | - | - |
| 1777765264 | 21.11° C | 100% | 1013.9 hPa | 0.51 mm | - | - | - |
| 1777764964 | 21.11° C | 100% | 1014.2 hPa | 0.51 mm | - | - | - |
| 1777764664 | 21.11° C | 100% | 1013.8 hPa | 0.51 mm | - | - | - |
| 1777764364 | 21.11° C | 100% | 1014.3 hPa | 0.51 mm | - | - | - |
| 1777764064 | 21.11° C | 100% | 1014.6 hPa | 0.51 mm | - | - | - |
| 1777763764 | 21.11° C | 100% | 1014.5 hPa | 0.76 mm | - | - | - |
| 1777763697 | 21.11° C | 100% | 1014.2 hPa | 1.02 mm | - | - | - |
| 1777763643 | 21.11° C | 100% | 1014.2 hPa | 1.02 mm | - | - | - |
| 1777763464 | 21.11° C | 100% | 1014.2 hPa | 1.02 mm | - | - | - |
| 1777763164 | 21.11° C | 100% | 1014 hPa | 1.02 mm | - | - | - |
| 1777762864 | 21.11° C | 100% | 1014.2 hPa | 1.02 mm | - | - | - |
| 1777762564 | 21.11° C | 100% | 1014.3 hPa | 1.27 mm | - | - | - |
| 1777762264 | 21.67° C | 100% | 1014.2 hPa | 1.27 mm | - | - | - |
| 1777761964 | 21.67° C | 100% | 1014.6 hPa | 1.27 mm | - | - | - |
| 1777761664 | 21.67° C | 100% | 1014.1 hPa | 1.02 mm | - | - | - |
| 1777761387 | 21.67° C | 100% | 1013.8 hPa | 0.76 mm | - | - | - |
| 1777761364 | 21.67° C | 100% | 1014 hPa | 1.02 mm | - | - | - |
| 1777761064 | 21.67° C | 100% | 1014.1 hPa | 0.76 mm | - | - | - |
| 1777760764 | 21.67° C | 100% | 1013.8 hPa | 0.76 mm | - | - | - |
| 1777760552 | 21.67° C | 100% | 1014.2 hPa | 1.78 mm | - | - | - |
| 1777760464 | 21.67° C | 100% | 1014.2 hPa | 1.78 mm | - | - | - |
| 1777760164 | 21.67° C | 100% | 1014.3 hPa | 1.78 mm | - | - | - |
| 1777759864 | 21.67° C | 100% | 1013.8 hPa | 2.03 mm | - | - | - |
* Rain latest hour (hover to see other rain measurements)
** Current wind speed in m/s (hover to see current wind gust speed)